| time (UTC) | temp F | wind direction | speed knots | gust knots | rain 1hr in | rain 24hr in | rain mn in | humidity % | barometer mb |
| 20260510224530 | 63 | 91 | 0.0 | 1.7 | 0.00 | 0.14 | 0.00 | 89 | 1013.6 |
| 20260510223029 | 64 | 114 | 0.9 | 2.6 | 0.00 | 0.14 | 0.00 | 89 | 1013.5 |
| 20260510221530 | 64 | 94 | 0.0 | 1.7 | 0.00 | 0.14 | 0.00 | 89 | 1013.6 |
| 20260510220028 | 65 | 111 | 0.0 | 0.0 | 0.00 | 0.14 | 0.00 | 89 | 1013.6 |
| 20260510214527 | 65 | 111 | 0.0 | 0.0 | 0.00 | 0.16 | 0.00 | 87 | 1013.6 |
| 20260510213025 | 65 | 111 | 0.0 | 0.9 | 0.00 | 0.16 | 0.00 | 85 | 1013.5 |
| 20260510211525 | 65 | 111 | 0.0 | 0.9 | 0.00 | 0.16 | 0.00 | 85 | 1013.3 |
| 20260510210022 | 65 | 254 | 0.0 | 0.9 | 0.00 | 0.16 | 0.00 | 83 | 1013.4 |
| 20260510204522 | 66 | 236 | 0.0 | 2.6 | 0.00 | 0.18 | 0.00 | 82 | 1013.3 |
| 20260510203021 | 66 | 137 | 0.9 | 3.5 | 0.00 | 0.18 | 0.00 | 81 | 1013.3 |
| 20260510201519 | 65 | 42 | 0.9 | 4.3 | 0.00 | 0.18 | 0.00 | 84 | 1013.2 |
| 20260510200027 | 64 | 263 | 0.0 | 3.5 | 0.00 | 0.18 | 0.00 | 85 | 1013.2 |
| 20260510194528 | 63 | 74 | 0.0 | 3.5 | 0.00 | 0.26 | 0.00 | 87 | 1013.3 |
| 20260510193017 | 62 | 120 | 0.9 | 3.5 | 0.00 | 0.26 | 0.00 | 88 | 1013.4 |
| 20260510191521 | 62 | 78 | 0.0 | 5.2 | 0.00 | 0.26 | 0.00 | 87 | 1013.5 |
| 20260510190116 | 61 | 143 | 0.0 | 2.6 | 0.00 | 0.26 | 0.00 | 90 | 1013.5 |
| 20260510184515 | 61 | 82 | 0.9 | 4.3 | 0.00 | 0.33 | 0.00 | 89 | 1013.5 |
| 20260510183014 | 63 | 91 | 0.9 | 4.3 | 0.00 | 0.33 | 0.00 | 87 | 1013.5 |
| 20260510181514 | 65 | 122 | 0.9 | 2.6 | 0.00 | 0.33 | 0.00 | 83 | 1013.4 |
| 20260510180011 | 65 | 261 | 0.9 | 5.2 | 0.00 | 0.33 | 0.00 | 83 | 1013.6 |
| 20260510174508 | 64 | 277 | 0.9 | 7.8 | 0.00 | 0.35 | 0.00 | 84 | 1013.8 |
| 20260510173006 | 63 | 240 | 0.9 | 3.5 | 0.00 | 0.35 | 0.00 | 85 | 1013.8 |
| 20260510171503 | 61 | 148 | 0.0 | 3.5 | 0.00 | 0.35 | 0.00 | 89 | 1014.0 |
| 20260510170101 | 61 | 278 | 0.9 | 3.5 | 0.00 | 0.35 | 0.00 | 90 | 1013.9 |
| 20260510164601 | 60 | 290 | 0.9 | 4.3 | 0.00 | 0.35 | 0.00 | 92 | 1014.0 |
| 20260510163116 | 59 | 237 | 0.9 | 5.2 | 0.00 | 0.35 | 0.00 | 92 | 1014.2 |
| 20260510161601 | 59 | 242 | 0.9 | 4.3 | 0.00 | 0.35 | 0.00 | 92 | 1014.0 |
| 20260510160059 | 59 | 61 | 1.7 | 4.3 | 0.00 | 0.35 | 0.00 | 92 | 1014.2 |
| 20260510154549 | 58 | 196 | 0.0 | 5.2 | 0.00 | 0.35 | 0.00 | 95 | 1014.2 |
| 20260510153053 | 57 | 241 | 1.7 | 5.2 | 0.00 | 0.35 | 0.00 | 95 | 1014.5 |
| 20260510151549 | 57 | 263 | 0.9 | 3.5 | 0.00 | 0.35 | 0.00 | 99 | 1014.6 |
| 20260510150042 | 56 | 278 | 0.0 | 1.7 | 0.00 | 0.35 | 0.00 | 100 | 1014.8 |
| 20260510144545 | 55 | 238 | 0.0 | 2.6 | 0.00 | 0.35 | 0.00 | 100 | 1014.6 |
| 20260510143049 | 54 | 89 | 0.0 | 2.6 | 0.00 | 0.35 | 0.00 | 100 | 1014.4 |
| 20260510141539 | 53 | 62 | 0.0 | 1.7 | 0.00 | 0.35 | 0.00 | 100 | 1014.1 |
| 20260510140035 | 53 | 146 | 0.0 | 1.7 | 0.00 | 0.35 | 0.00 | 100 | 1014.1 |
| 20260510134535 | 53 | 149 | 0.0 | 1.7 | 0.00 | 0.35 | 0.00 | 100 | 1014.1 |
| 20260510133036 | 53 | 121 | 0.0 | 2.6 | 0.00 | 0.35 | 0.00 | 100 | 1013.8 |
| 20260510131533 | 53 | 148 | 0.0 | 2.6 | 0.00 | 0.35 | 0.00 | 100 | 1013.8 |
| 20260510130032 | 53 | 144 | 0.0 | 0.9 | 0.00 | 0.35 | 0.00 | 100 | 1014.0 |
| 20260510124528 | 52 | 61 | 0.0 | 1.7 | 0.00 | 0.36 | 0.00 | 100 | 1013.6 |
| 20260510123028 | 52 | 122 | 0.0 | 0.9 | 0.00 | 0.36 | 0.00 | 100 | 1013.5 |
| 20260510121525 | 52 | 172 | 0.0 | 0.9 | 0.00 | 0.36 | 0.00 | 100 | 1013.4 |
| 20260510120025 | 52 | 60 | 0.9 | 1.7 | 0.00 | 0.36 | 0.00 | 100 | 1013.1 |
| 20260510114523 | 52 | 99 | 0.9 | 3.5 | 0.00 | 0.36 | 0.00 | 100 | 1013.1 |
| 20260510113022 | 51 | 154 | 0.0 | 3.5 | 0.00 | 0.36 | 0.00 | 100 | 1012.8 |
| 20260510111522 | 51 | 118 | 0.0 | 1.7 | 0.00 | 0.36 | 0.00 | 100 | 1012.7 |
| 20260510110026 | 51 | 122 | 0.0 | 0.0 | 0.00 | 0.36 | 0.00 | 100 | 1013.0 |
| 20260510104522 | 51 | 122 | 0.0 | 0.0 | 0.00 | 0.36 | 0.00 | 100 | 1012.7 |
| 20260510103020 | 51 | 122 | 0.0 | 0.0 | 0.00 | 0.36 | 0.00 | 100 | 1012.6 |
| 20260510101519 | 50 | 123 | 0.0 | 0.0 | 0.00 | 0.36 | 0.00 | 100 | 1012.6 |
| 20260510100019 | 51 | 123 | 0.0 | 0.0 | 0.00 | 0.36 | 0.00 | 100 | 1012.5 |
| 20260510094519 | 51 | 123 | 0.0 | 0.0 | 0.00 | 0.36 | 0.00 | 100 | 1012.8 |
| 20260510093017 | 51 | 123 | 0.0 | 0.0 | 0.00 | 0.36 | 0.00 | 100 | 1012.7 |
| 20260510091516 | 51 | 123 | 0.0 | 0.0 | 0.00 | 0.36 | 0.00 | 100 | 1012.8 |
| 20260510090018 | 51 | 123 | 0.0 | 0.0 | 0.00 | 0.36 | 0.00 | 100 | 1012.7 |
| 20260510084515 | 51 | 123 | 0.0 | 0.0 | 0.00 | 0.36 | 0.00 | 100 | 1013.0 |
| 20260510083013 | 51 | 115 | 0.0 | 0.9 | 0.00 | 0.36 | 0.00 | 100 | 1012.9 |
| 20260510081531 | 51 | 115 | 0.0 | 0.0 | 0.00 | 0.36 | 0.00 | 100 | 1012.2 |
| 20260510080010 | 51 | 133 | 0.0 | 0.9 | 0.00 | 0.36 | 0.00 | 100 | 1012.0 |
| 20260510074510 | 51 | 133 | 0.0 | 0.0 | 0.00 | 0.37 | 0.00 | 100 | 1011.8 |
| 20260510073013 | 51 | 133 | 0.0 | 0.0 | 0.00 | 0.37 | 0.00 | 100 | 1012.2 |
| 20260510071508 | 51 | 133 | 0.0 | 0.0 | 0.00 | 0.37 | 0.00 | 100 | 1012.2 |
| 20260510070007 | 51 | 133 | 0.0 | 0.0 | 0.00 | 0.37 | 0.00 | 100 | 1012.2 |
| 20260510064506 | 51 | 133 | 0.0 | 0.0 | 0.00 | 0.37 | 0.00 | 100 | 1012.2 |
| 20260510063006 | 51 | 133 | 0.0 | 0.0 | 0.00 | 0.37 | 0.00 | 100 | 1012.1 |
| 20260510061511 | 51 | 131 | 0.0 | 0.0 | 0.00 | 0.37 | 0.00 | 100 | 1012.0 |
| 20260510060005 | 51 | 132 | 0.0 | 1.7 | 0.00 | 0.37 | 0.00 | 100 | 1011.9 |
| 20260510054507 | 52 | 138 | 0.0 | 0.0 | 0.00 | 0.37 | 0.00 | 100 | 1012.1 |
| 20260510053001 | 52 | 138 | 0.0 | 0.9 | 0.00 | 0.37 | 0.00 | 100 | 1012.2 |
| 20260510051503 | 52 | 138 | 0.0 | 0.0 | 0.00 | 0.37 | 0.00 | 100 | 1012.2 |
| 20260510050002 | 52 | 138 | 0.0 | 0.0 | 0.00 | 0.37 | 0.00 | 100 | 1012.2 |
| 20260510044614 | 52 | 138 | 0.0 | 0.9 | 0.00 | 0.37 | 0.00 | 100 | 1012.3 |
| 20260510043101 | 52 | 138 | 0.0 | 0.0 | 0.00 | 0.37 | 0.00 | 100 | 1012.2 |
| 20260510041604 | 52 | 138 | 0.0 | 0.9 | 0.00 | 0.37 | 0.00 | 100 | 1012.1 |
| 20260510040055 | 52 | 105 | 0.0 | 0.0 | 0.00 | 0.37 | 0.00 | 100 | 1011.9 |
| 20260510034558 | 52 | 115 | 0.0 | 0.0 | 0.00 | 0.37 | 0.37 | 100 | 1011.7 |
| 20260510033108 | 52 | 99 | 0.0 | 0.0 | 0.00 | 0.37 | 0.37 | 100 | 1011.8 |
| 20260510031554 | 52 | 99 | 0.0 | 0.0 | 0.00 | 0.37 | 0.37 | 100 | 1011.9 |
| 20260510030111 | 52 | 100 | 0.0 | 0.0 | 0.00 | 0.37 | 0.37 | 100 | 1012.0 |
| 20260510024554 | 52 | 105 | 0.0 | 0.0 | 0.00 | 0.37 | 0.37 | 100 | 1012.1 |
| 20260510023055 | 52 | 103 | 0.0 | 0.9 | 0.00 | 0.37 | 0.37 | 100 | 1012.0 |
| 20260510021553 | 52 | 93 | 0.0 | 1.7 | 0.00 | 0.37 | 0.37 | 100 | 1012.0 |
| 20260510020052 | 52 | 27 | 0.0 | 1.7 | 0.00 | 0.37 | 0.37 | 100 | 1012.0 |
| 20260510014558 | 52 | 49 | 0.0 | 2.6 | 0.00 | 0.37 | 0.37 | 100 | 1012.1 |
| 20260510013051 | 52 | 91 | 0.0 | 0.9 | 0.00 | 0.37 | 0.37 | 100 | 1011.7 |
| 20260510011551 | 52 | 126 | 0.0 | 1.7 | 0.00 | 0.37 | 0.37 | 100 | 1011.4 |
| 20260510010150 | 52 | 131 | 0.0 | 2.6 | 0.00 | 0.37 | 0.37 | 100 | 1011.4 |
| 20260510004549 | 53 | 122 | 0.0 | 0.0 | 0.00 | 0.37 | 0.37 | 100 | 1011.3 |
| 20260510003059 | 53 | 67 | 0.0 | 0.9 | 0.00 | 0.37 | 0.37 | 100 | 1011.2 |
| 20260510001549 | 53 | 323 | 0.0 | 0.0 | 0.00 | 0.37 | 0.37 | 100 | 1011.2 |
| 20260510000054 | 53 | 319 | 0.0 | 0.0 | 0.02 | 0.37 | 0.37 | 100 | 1011.1 |
| 20260509234556 | 54 | 319 | 0.0 | 0.0 | 0.05 | 0.37 | 0.37 | 100 | 1011.1 |
| 20260509233058 | 53 | 30 | 0.0 | 0.0 | 0.07 | 0.37 | 0.37 | 100 | 1010.9 |
| 20260509231552 | 54 | 141 | 0.0 | 6.1 | 0.13 | 0.37 | 0.37 | 99 | 1010.9 |
| 20260509230046 | 54 | 101 | 0.9 | 3.5 | 0.12 | 0.35 | 0.35 | 99 | 1011.8 |